Regional Weather Roundup
Issued by NWS Grand Forks, ND

Home | Current Version | Previous Version | Graphics & Text | Print | Product List | Glossary On
Versions: 1 2 3 4 5 6 7 8 9 10 11 12 13 14 15 16 17 18 19 20 21 22 23 24 25 26 27 28 29 30 31 32 33 34 35 36 37 38 39 40 41 42 43 44 45 46 47 48 49 50
000
ASUS43 KFGF 312110
RWRFGF
PRAIRIE TO PINES  WEATHER ROUNDUP
NATIONAL WEATHER SERVICE EASTERN NORTH DAKOTA/GRAND FORKS ND
300 PM CST SAT JAN 31 2015

 **SATELLITE DATA USED TO AUGMENT SKY COVER AT AUTOMATED STATIONS**
 *****  WEATHER ACROSS EASTERN NORTH DAKOTA  *****

CITY           SKY/WX    TMP DP  RH WIND       PRES   REMARKS
GRAND FORKS    PTSUNNY    1  -9  62 N21       30.44F WCI -21
GRAND FRKS AFB MOSUNNY   -1 -11  61 N21       30.44F WCI -23
GRAND FRKS NWS   N/A      0 N/A N/A N9          N/A  WCI -16
DEVILS LAKE    PTSUNNY   -2 -15  55 NE21      30.37F WCI -25
FARGO          CLOUDY    13  -4  46 N22       30.34S WCI  -6
WAHPETON ARPT  MOCLDY    18   1  49 N16G24    30.27S WCI   3
$$

 ***** WEATHER ACROSS CENTRAL AND WESTERN NORTH DAKOTA  *****

CITY           SKY/WX    TMP DP  RH WIND       PRES   REMARKS
BISMARCK       CLOUDY    14   2  58 E14       30.28S WCI  -1
MINOT          LGT SNOW   2  -4  76 NE12      30.37R VSB 3/4 WCI -15
JAMESTOWN      CLOUDY     9  -4  55 NE23      30.29F WCI -11
MINOT AFB      LGT SNOW   1  -2  85 NE14      30.38S WCI -17
GARRISON         N/A      4  -1  80 E12       30.31R WCI -12
WILLISTON      LGT SNOW   7   0  73 NE15      30.33R VSB 1   WCI -10
DICKINSON      LGT SNOW  12   7  80 E15       30.13F WCI  -4
HETTINGER      CLOUDY    16  13  88 E22G29    30.09F FOG     WCI  -2
$$

 *****  OTHER AIRPORT OBSERVATIONS IN OUR AREA  *****

CITY           SKY/WX    TMP DP  RH WIND       PRES   REMARKS
WALHALLA         N/A     -4 -13  65 N15       30.52F WCI -25
GRAFTON AIRPOR NOT AVBL
VALLEY CITY AR CLOUDY     7  -6  56 NE16G28   30.31S WCI -11
CANDO          FAIR      -4 -13  65 NE17G23   30.42F WCI -26
CAVALIER APRT  MOCLDY    -4 -13  65 N17G24    30.52S WCI -26
GWINNER        CLEAR     16   1  53 NE21      30.28R WCI  -2
ROLLA          FAIR      -8 -15  71 NE20      30.41S WCI -32
 ***** THE ABOVE OBSERVATIONS ARE NON NWS ARE NOT QUALITY
       CONTROLLED AND MAY MIS-REPORT RAIN FOR SNOW...
$$

  *****  WEATHER ACROSS NORTHERN MINNESOTA  *****

CITY           SKY/WX    TMP DP  RH WIND       PRES   REMARKS
FLAG ISLAND    SUNNY     -2 -13  60 N12       30.42S WCI -20
WARROAD        SUNNY      1  -9  60 NE10      30.43R WCI -14
ROSEAU         SUNNY      3  -9  55 N12       30.43R WCI -13
HALLOCK        SUNNY     -2 -15  55 N16       30.48S WCI -23
THF RVR FALLS  SUNNY      1  -8  66 N16       30.39S WCI -18
BAUDETTE       SUNNY      0 -10  63 NW13      30.38S WCI -18
WASKISH        SUNNY      7  -2  66 CALM      30.36R
CROOKSTON      SUNNY      5  -8  56 N13G20    30.42F WCI -12
STEPHEN NDAWN    N/A     -2 -11  65 VRB15       N/A  WCI -22
GREENBUSH NDAW   N/A      1  -9  60 N12         N/A  WCI -15
$$
  *****  WEATHER ACROSS CENTRAL AND WEST MINNESOTA  *****

CITY           SKY/WX    TMP DP  RH WIND       PRES   REMARKS
FOSSTON        MOSUNNY    9   0  66 N16       30.33F WCI  -9
BEMIDJI        MOSUNNY    7  -3  65 N8        30.30S WCI  -6
PARK RAPIDS    SUNNY     17  -7  34 N13       30.24S WCI   4
ELBOW LAKE     MOCLDY    22  -1  36 NE14G20   30.20F WCI   9
WADENA         MOSUNNY   19  -2  38 N13       30.21F WCI   7
DETROIT LAKES  SUNNY     18   0  45 N5        30.26F WCI  11
MOORHEAD       MOSUNNY   12  -2  52 N20G25    30.33F WCI  -6
FERGUS FALLS   PTSUNNY   18   1  49 N13       30.27S WCI   4
MORRIS MN      PTSUNNY   28  12  50 NE9       30.19R WCI  20
STAPLES        MOSUNNY   19  -6  32 NE10G16   30.22S WCI   8
$$
  *****  WEATHER ELSEWHERE ACROSS MINNESOTA  *****

CITY           SKY/WX    TMP DP  RH WIND       PRES   REMARKS
DULUTH         SUNNY     19  -1  41 N9        30.23R WCI   8
INTRNTL FALLS  SUNNY      5  -7  57 N8        30.35R WCI  -8
ELY            SUNNY     10  -6  48 N6        30.27R WCI   1
CLOQUET        SUNNY     21   1  42 N7        30.23R WCI  13
WHEATON        PTSUNNY   18   9  68 N14G22    30.25S WCI   4
BRAINERD       MOSUNNY   24   5  44 N9        30.22F WCI  14
HIBBING        SUNNY     16  -3  43 N12       30.26R WCI   3
ALEXANDRIA     CLOUDY    24   4  42 NE13      30.18F WCI  12
SAINT CLOUD    CLOUDY    28  14  55 NE8       30.18F WCI  20
MINNEAPOLIS    CLOUDY    27  17  66 E9        30.19S WCI  18
$$

  *****  WEATHER ACROSS SOUTH DAKOTA  *****

CITY           SKY/WX    TMP DP  RH WIND       PRES   REMARKS
SIOUX FALLS    LGT SNOW  26  24  92 E15       30.06F FOG     WCI  14
BROOKINGS      NOT AVBL
WATERTOWN      CLOUDY    17  14  88 NE15G23   30.12F WCI   2
HURON          CLOUDY    22  16  78 NE15      30.13F WCI   9
SISSETON         N/A     18   6  59 NE18      30.22F WCI   2
ABERDEEN       PTSUNNY   18   2  49 NE16G29   30.21F WCI   3
MITCHELL       CLOUDY    24  22  91 NE15      30.09F FOG     WCI  11
PIERRE         CLOUDY    19  16  88 NE18      30.10S WCI   4
MOBRIDGE       CLOUDY    19   5  54 NE17G23   30.16F WCI   4
RAPID CITY     FRZ RAIN  25  24  96 E9        29.97F VSB 1/2 WCI  15
$$

  *****  SOME WEATHER IN NEARBY STATES *****

CITY           SKY/WX    TMP DP  RH WIND       PRES   REMARKS
GLASGOW MT     SNOW      12   5  73 NE22      30.27R VSB 1/2 WCI  -7
GREAT FALLS MT LGT SNOW  14   9  80 NW18      30.28S VSB 3/4 WCI  -3
CHEYENNE WY    CLOUDY    38  27  64 W3        29.78F
SCOTTSBLUFF NE LGT SNOW  33  31  92 N6        29.85F FOG
OMAHA NE       LGT SNOW  34  33  96 SE9       30.03F FOG
DES MOINES IA  LGT RAIN  39  36  89 S7        30.10F
DAVENPORT IA   CLOUDY    35  32  88 SW6       30.15F FOG
CHICAGO IL     CLOUDY    35  25  66 W8        30.16S
EAU CLAIRE WI  CLOUDY    28  18  66 N5        30.18S WCI  23
LA CROSSE WI   CLOUDY    33  23  66 N8        30.17S
$$

  *****  SOME NATIONAL WEATHER *****

CITY           SKY/WX    TMP DP  RH WIND       PRES   REMARKS
LA GUARDIA NY  MOSUNNY   26   3  37 NW22G32   30.10R WCI  12
RALEIGH NC     MOSUNNY   47   6  18 W5        30.28F
ATLANTA GA     PTSUNNY   54  16  22 E5        30.29F
NEW ORLEANS LA CLOUDY    58  47  66 E9        30.20F
OKLAHOMA CITY  LGT RAIN  42  38  85 SE14      29.96F FOG
ALBUQUERQUE NM CLOUDY    39  35  86 CALM      29.89F FOG
SALT LAKE CITY MOSUNNY   46  30  53 NW16      30.05R
LOS ANGELES CA MOSUNNY   64  55  72 W12       29.89F
BOISE ID       SUNNY     45  31  58 W14       30.14F
SEATTLE WA     CLOUDY    41  39  93 NW5       30.21F FOG
$$

*** WEATHER ACROSS MANITOBA...SASKATCHEWAN AND ONTARIO ***
                ***ONTARIO***

CITY           SKY/WX    TMP DP  RH WIND       PRES   REMARKS
GERALDTON      MOSUNNY   -8 -18  59 NW10      30.28R WCI -26
THUNDER BAY    MOSUNNY    9 -11  40 N12G20    30.34R WCI  -6
SIOUX LOOKOUT  SUNNY     -6 -18  54 N5        30.38S WCI -17
TORONTO        PTSUNNY   25  14  63 S7        30.16F WCI  17
BIG TROUT LK   SUNNY    -18 -27  63 W15       30.35S WCI -43
PICKLE LAKE    CRYSTALS -11 -22  58 NW9G18    30.34S WCI -29
DRYDEN         SUNNY     -6 -17  59 NW7       30.38R WCI -20
KENORA         MOSUNNY   -4 -17  54 N9        30.41R WCI -20
$$
                *** MANITOBA***

CITY           SKY/WX    TMP DP  RH WIND       PRES   REMARKS
BRANDON        PTSUNNY   -9 -20  59 NE10      30.53S WCI -28
DAUPHIN        SUNNY    -11 -22  58 SW3       30.62S
ISLAND LAKE    SUNNY    -17 -26  63 W9        30.48F WCI -36
PILOT MOUND      N/A    -11 -20  64 N13         N/A  WCI -32
THE PAS        MOSUNNY  -11 -22  58 NW8       30.63F WCI -28
THOMPSON       CRYSTALS -15 -27  53 W10       30.52F WCI -35
WINNIPEG       MOSUNNY   -9 -20  59 N15       30.58R WCI -31
LYNN LAKE      SUNNY    -17 -29  52 W13       30.50S WCI -39
CHURCHILL      PTCLDY   -20 -27  69 NW22G31   30.36R BLWGSNOWWCI -50
GILLAM         SUNNY    -18 -27  63 W12       30.44S WCI -40
$$
                ***SASKATCHEWAN***

CITY           SKY/WX    TMP DP  RH WIND       PRES   REMARKS
ESTEVAN        CLOUDY    -2 -11  65 E15       30.42R WCI -22
KINDERSLEY     CLOUDY    -4  -9  77 NE6       30.50R WCI -16
LLOYDMINSTER   PTSUNNY   -2 -13  60 S5        30.50F WCI -12
PRINCE ALBERT  PTSUNNY   -9 -22  54 NW7       30.62F WCI -24
REGINA         CLOUDY     0  -9  65 NE7       30.48S WCI -13
YORKTON        SUNNY    -13 -22  64 N10       30.54S WCI -32
N. BATTLEFORD  MOSUNNY   -4 -11  71 CALM      30.59S
LA RONGE       MOSUNNY  -11 -24  53 SW6       30.62F WCI -25
SASKATOON      CLOUDY    -8 -15  71 NE6       30.60F WCI -21
SWIFT CURRENT  CLOUDY    -2  -6  84 NE10      30.38F WCI -19
$$
NOTE: THESE ARE AUTOMATED STATIONS WITH LIMITED QUALITY CONTROL
      "FAIR" INDICATES FEW OR NO CLOUDS BELOW 12,000 FEET WITH NO
      SIGNIFICANT WEATHER AND/OR OBSTRUCTIONS TO VISIBILITY.
      SKY/WX - SKY CONDITION AND SIGNIFICANT WEATHER.
      TMP - AIR TEMPERATURE.    DP   - DEWPOINT TEMPERATURE.
      RH  - RELATIVE HUMIDITY.  PRES - PRESSURE.
      HX  - HEAT INDEX.         WCI  - WIND CHILL INDEX.
$



USA.gov is the U.S. government's official web portal to all federal, state and local government web resources and services.